Time,TemperatureF,DewpointF,PressureIn,WindDirection,WindDirectionDegrees,WindSpeedMPH,WindSpeedGustMPH,Humidity,HourlyPrecipIn,Conditions,Clouds,dailyrainin,SolarRadiationWatts/m^2,SoftwareType,DateUTC
2013-05-14 00:01:00,54.0,44.0,30.26,NW,304,3.0,7.0,67,-99.99,,,0.01,0.000000,,2013-05-14 07:01:00,
2013-05-14 00:11:00,54.0,44.0,30.26,NW,304,3.0,7.0,67,-99.99,,,0.01,0.000000,,2013-05-14 07:11:00,
2013-05-14 00:41:00,53.0,46.0,30.27,South,178,2.0,4.0,76,-99.99,,,0.01,0.000000,,2013-05-14 07:41:00,
2013-05-14 00:52:00,53.0,46.0,30.27,South,178,2.0,4.0,76,-99.99,,,0.01,0.000000,,2013-05-14 07:52:00,
2013-05-14 01:02:00,53.0,46.0,30.27,South,178,2.0,4.0,76,-99.99,,,0.01,0.000000,,2013-05-14 08:02:00,
2013-05-14 01:11:00,53.0,46.0,30.27,South,178,2.0,4.0,76,-99.99,,,0.01,0.000000,,2013-05-14 08:11:00,
2013-05-14 01:41:00,53.0,46.0,30.28,SSW,195,3.0,5.0,79,-99.99,,,0.01,0.000000,,2013-05-14 08:41:00,
2013-05-14 01:52:00,53.0,46.0,30.28,SSW,195,3.0,5.0,79,-99.99,,,0.01,0.000000,,2013-05-14 08:52:00,
2013-05-14 02:01:00,53.0,46.0,30.28,SSW,195,3.0,5.0,79,-99.99,,,0.01,0.000000,,2013-05-14 09:01:00,
2013-05-14 02:11:00,53.0,46.0,30.28,SSW,195,3.0,5.0,79,-99.99,,,0.01,0.000000,,2013-05-14 09:11:00,
2013-05-14 02:44:00,51.0,46.0,30.28,SE,124,2.0,7.0,82,-99.99,,,0.01,0.000000,,2013-05-14 09:44:00,
2013-05-14 02:54:00,51.0,46.0,30.28,SE,124,2.0,7.0,82,-99.99,,,0.01,0.000000,,2013-05-14 09:54:00,
2013-05-14 03:04:00,51.0,46.0,30.28,SE,124,2.0,7.0,82,-99.99,,,0.01,0.000000,,2013-05-14 10:04:00,
2013-05-14 03:14:00,51.0,46.0,30.28,SE,124,2.0,7.0,82,-99.99,,,0.01,0.000000,,2013-05-14 10:14:00,
2013-05-14 03:42:00,48.0,44.0,30.28,ENE,71,3.0,5.0,86,-99.99,,,0.01,0.120000,,2013-05-14 10:42:00,
2013-05-14 03:52:00,48.0,44.0,30.28,ENE,71,3.0,5.0,86,-99.99,,,0.01,0.120000,,2013-05-14 10:52:00,
2013-05-14 04:02:00,48.0,44.0,30.28,ENE,71,3.0,5.0,86,-99.99,,,0.01,0.120000,,2013-05-14 11:02:00,
2013-05-14 04:11:00,48.0,44.0,30.28,ENE,71,3.0,5.0,86,-99.99,,,0.01,0.120000,,2013-05-14 11:11:00,
2013-05-14 04:43:00,48.0,45.0,30.28,SE,131,2.0,8.0,88,-99.99,,,0.01,0.120000,,2013-05-14 11:43:00,
2013-05-14 04:53:00,48.0,45.0,30.28,SE,131,2.0,8.0,88,-99.99,,,0.01,0.120000,,2013-05-14 11:53:00,
2013-05-14 05:02:00,48.0,45.0,30.28,SE,131,2.0,8.0,88,-99.99,,,0.01,0.120000,,2013-05-14 12:02:00,
2013-05-14 05:12:00,48.0,45.0,30.28,SE,131,2.0,8.0,88,-99.99,,,0.01,0.120000,,2013-05-14 12:12:00,
2013-05-14 05:42:00,47.0,44.0,30.27,ENE,65,2.0,4.0,91,-99.99,,,0.00,0.230000,,2013-05-14 12:42:00,
2013-05-14 05:52:00,47.0,44.0,30.27,ENE,65,2.0,4.0,91,-99.99,,,0.00,0.230000,,2013-05-14 12:52:00,
2013-05-14 06:01:00,47.0,44.0,30.27,ENE,65,2.0,4.0,91,-99.99,,,0.00,0.230000,,2013-05-14 13:01:00,
2013-05-14 06:11:00,47.0,44.0,30.27,ENE,65,2.0,4.0,91,-99.99,,,0.00,0.230000,,2013-05-14 13:11:00,
2013-05-14 06:41:00,47.0,43.0,30.28,NE,52,1.0,3.0,87,-99.99,,,0.00,16.270000,,2013-05-14 13:41:00,
2013-05-14 06:52:00,47.0,43.0,30.28,NE,52,1.0,3.0,87,-99.99,,,0.00,16.270000,,2013-05-14 13:52:00,
2013-05-14 07:01:00,47.0,43.0,30.28,NE,52,1.0,3.0,87,-99.99,,,0.00,16.270000,,2013-05-14 14:01:00,
2013-05-14 07:11:00,47.0,43.0,30.28,NE,52,1.0,3.0,87,-99.99,,,0.00,16.270000,,2013-05-14 14:11:00,
2013-05-14 07:41:00,47.0,43.0,30.28,ENE,64,1.0,3.0,84,-99.99,,,-99.99,62.180000,,2013-05-14 14:41:00,
2013-05-14 07:52:00,47.0,43.0,30.28,ENE,64,1.0,3.0,84,-99.99,,,-99.99,62.180000,,2013-05-14 14:52:00,
2013-05-14 08:01:00,47.0,43.0,30.28,ENE,64,1.0,3.0,84,-99.99,,,-99.99,62.180000,,2013-05-14 15:01:00,
2013-05-14 08:11:00,47.0,43.0,30.28,ENE,64,1.0,3.0,84,-99.99,,,-99.99,62.180000,,2013-05-14 15:11:00,
2013-05-14 08:43:00,51.0,44.0,30.29,SSE,160,1.0,2.0,78,-99.99,,,0.00,194.440002,,2013-05-14 15:43:00,
2013-05-14 08:53:00,51.0,44.0,30.29,SSE,160,1.0,2.0,78,-99.99,,,0.00,194.440002,,2013-05-14 15:53:00,
2013-05-14 09:02:00,51.0,44.0,30.29,SSE,160,1.0,2.0,78,-99.99,,,0.00,194.440002,,2013-05-14 16:02:00,
2013-05-14 09:12:00,51.0,44.0,30.29,SSE,160,1.0,2.0,78,-99.99,,,0.00,194.440002,,2013-05-14 16:12:00,
2013-05-14 09:43:00,53.0,45.0,30.28,WSW,245,2.0,5.0,73,-99.99,,,0.00,498.929993,,2013-05-14 16:43:00,
2013-05-14 09:54:00,53.0,45.0,30.28,WSW,245,2.0,5.0,73,-99.99,,,0.00,498.929993,,2013-05-14 16:54:00,
2013-05-14 10:03:00,53.0,45.0,30.28,WSW,245,2.0,5.0,73,-99.99,,,0.00,498.929993,,2013-05-14 17:03:00,
2013-05-14 10:13:00,53.0,45.0,30.28,WSW,245,2.0,5.0,73,-99.99,,,0.00,498.929993,,2013-05-14 17:13:00,
2013-05-14 10:43:00,57.0,45.0,30.26,WSW,251,5.0,9.0,64,-99.99,,,0.00,636.890015,,2013-05-14 17:43:00,
2013-05-14 10:52:00,57.0,45.0,30.26,WSW,251,5.0,9.0,64,-99.99,,,0.00,636.890015,,2013-05-14 17:52:00,
2013-05-14 11:02:00,57.0,45.0,30.26,WSW,251,5.0,9.0,64,-99.99,,,0.00,636.890015,,2013-05-14 18:02:00,
2013-05-14 11:12:00,57.0,45.0,30.26,WSW,251,5.0,9.0,64,-99.99,,,0.00,636.890015,,2013-05-14 18:12:00,
2013-05-14 11:42:00,60.0,44.0,30.26,WSW,243,5.0,12.0,55,-99.99,,,0.00,777.510010,,2013-05-14 18:42:00,
2013-05-14 11:52:00,60.0,44.0,30.26,WSW,243,5.0,12.0,55,-99.99,,,0.00,777.510010,,2013-05-14 18:52:00,
2013-05-14 12:01:00,60.0,44.0,30.26,WSW,243,5.0,12.0,55,-99.99,,,0.00,777.510010,,2013-05-14 19:01:00,
2013-05-14 12:11:00,60.0,44.0,30.26,WSW,243,5.0,12.0,55,-99.99,,,0.00,777.510010,,2013-05-14 19:11:00,
2013-05-14 12:42:00,61.0,42.0,30.23,WSW,246,6.0,14.0,49,-99.99,,,0.00,821.679993,,2013-05-14 19:42:00,
2013-05-14 12:52:00,61.0,42.0,30.23,WSW,246,6.0,14.0,49,-99.99,,,0.00,821.679993,,2013-05-14 19:52:00,
2013-05-14 13:02:00,61.0,42.0,30.23,WSW,246,6.0,14.0,49,-99.99,,,0.00,821.679993,,2013-05-14 20:02:00,
2013-05-14 13:11:00,61.0,42.0,30.23,WSW,246,6.0,14.0,49,-99.99,,,0.00,821.679993,,2013-05-14 20:11:00,
2013-05-14 13:44:00,63.0,38.0,30.22,WSW,247,7.0,15.0,39,-99.99,,,0.00,896.059998,,2013-05-14 20:44:00,
2013-05-14 13:52:00,63.0,38.0,30.22,WSW,247,7.0,15.0,39,-99.99,,,0.00,896.059998,,2013-05-14 20:52:00,
2013-05-14 14:03:00,63.0,38.0,30.22,WSW,247,7.0,15.0,39,-99.99,,,0.00,896.059998,,2013-05-14 21:03:00,
2013-05-14 14:12:00,63.0,38.0,30.22,WSW,247,7.0,15.0,39,-99.99,,,0.00,896.059998,,2013-05-14 21:12:00,
2013-05-14 15:45:00,64.0,39.0,30.19,WSW,258,7.0,13.0,38,-99.99,,,0.00,813.539978,,2013-05-14 22:45:00,
2013-05-14 15:54:00,64.0,39.0,30.19,WSW,258,7.0,13.0,38,-99.99,,,0.00,813.539978,,2013-05-14 22:54:00,
2013-05-14 16:03:00,64.0,39.0,30.19,WSW,258,7.0,13.0,38,-99.99,,,0.00,813.539978,,2013-05-14 23:03:00,
2013-05-14 16:12:00,64.0,39.0,-100.00,WSW,258,7.0,13.0,38,-99.99,,,0.00,813.539978,,2013-05-14 23:12:00,
2013-05-14 16:44:00,66.0,37.0,30.18,West,260,6.0,12.0,34,-99.99,,,0.00,686.979980,,2013-05-14 23:44:00,
2013-05-14 16:52:00,66.0,37.0,30.18,West,260,6.0,12.0,34,-99.99,,,0.00,686.979980,,2013-05-14 23:52:00,
2013-05-14 17:01:00,66.0,37.0,30.18,West,260,6.0,12.0,34,-99.99,,,0.00,686.979980,,2013-05-15 00:01:00,
2013-05-14 17:11:00,66.0,37.0,30.18,West,260,6.0,12.0,34,-99.99,,,0.00,686.979980,,2013-05-15 00:11:00,
2013-05-14 18:42:00,64.0,40.0,30.16,West,268,8.0,13.0,40,-99.99,,,0.00,318.910004,,2013-05-15 01:42:00,
2013-05-14 18:52:00,64.0,40.0,30.16,West,268,8.0,13.0,40,-99.99,,,0.00,318.910004,,2013-05-15 01:52:00,
2013-05-14 19:01:00,64.0,40.0,30.16,West,268,8.0,13.0,40,-99.99,,,0.00,318.910004,,2013-05-15 02:01:00,
2013-05-14 19:11:00,64.0,40.0,30.16,West,268,8.0,13.0,40,-99.99,,,0.00,318.910004,,2013-05-15 02:11:00,
2013-05-14 19:42:00,64.0,41.0,30.15,WSW,258,4.0,9.0,43,-99.99,,,0.00,186.070007,,2013-05-15 02:42:00,
2013-05-14 19:52:00,64.0,41.0,30.15,WSW,258,4.0,9.0,43,-99.99,,,0.00,186.070007,,2013-05-15 02:52:00,
2013-05-14 20:01:00,64.0,41.0,30.15,WSW,258,4.0,9.0,43,-99.99,,,0.00,186.070007,,2013-05-15 03:01:00,
2013-05-14 20:12:00,64.0,41.0,30.15,WSW,258,4.0,9.0,43,-99.99,,,0.00,186.070007,,2013-05-15 03:12:00,
2013-05-14 20:44:00,60.0,40.0,30.16,SE,144,3.0,9.0,46,-99.99,,,0.00,10.230000,,2013-05-15 03:44:00,
2013-05-14 20:54:00,60.0,40.0,30.16,SE,144,3.0,9.0,46,-99.99,,,0.00,10.230000,,2013-05-15 03:54:00,
2013-05-14 21:03:00,60.0,40.0,30.16,SE,144,3.0,9.0,46,-99.99,,,0.00,10.230000,,2013-05-15 04:03:00,
2013-05-14 21:12:00,60.0,40.0,-100.00,SE,144,3.0,9.0,46,-99.99,,,0.00,10.230000,,2013-05-15 04:12:00,
2013-05-14 21:42:00,57.0,40.0,30.17,SE,140,4.0,14.0,53,-99.99,,,0.00,0.000000,,2013-05-15 04:42:00,
2013-05-14 21:52:00,57.0,40.0,30.17,SE,140,4.0,14.0,53,-99.99,,,0.00,0.000000,,2013-05-15 04:52:00,
2013-05-14 22:02:00,57.0,40.0,30.17,SE,140,4.0,14.0,53,-99.99,,,0.00,0.000000,,2013-05-15 05:02:00,
2013-05-14 22:11:00,57.0,40.0,30.17,SE,140,4.0,14.0,53,-99.99,,,0.00,0.000000,,2013-05-15 05:11:00,
2013-05-14 22:42:00,56.0,40.0,30.18,SSW,210,6.0,16.0,53,-99.99,,,0.00,0.000000,,2013-05-15 05:42:00,
2013-05-14 22:52:00,56.0,40.0,30.18,SSW,210,6.0,16.0,53,-99.99,,,0.00,0.000000,,2013-05-15 05:52:00,
2013-05-14 23:02:00,56.0,40.0,30.18,SSW,210,6.0,16.0,53,-99.99,,,0.00,0.000000,,2013-05-15 06:02:00,
2013-05-14 23:11:00,56.0,40.0,-100.00,SSW,210,6.0,16.0,53,-99.99,,,0.00,0.000000,,2013-05-15 06:11:00,
2013-05-14 23:32:00,55.0,40.0,30.17,SSE,150,6.0,16.0,57,-99.99,,,0.00,0.000000,,2013-05-15 06:32:00,
2013-05-14 23:41:00,55.0,40.0,30.17,SSE,150,6.0,16.0,57,-99.99,,,0.00,0.000000,,2013-05-15 06:41:00,
2013-05-14 23:52:00,55.0,40.0,30.17,SSE,150,6.0,16.0,57,-99.99,,,0.00,0.000000,,2013-05-15 06:52:00,